Location: Nied?wied?
(53.3665°N, 14.8184°E)
Time: 17:36:02
(UTC+00:00)

ISS - Pass Details

Date: 14 May 2021
Orbit: 417 x 422 km, 51.6° (Epoch: 14 June)

Event Time Altitude Azimuth Distance (km) Brightness Sun altitude
Rises 22:25:28 0° 254° (WSW) 2,365 0.0 -17.5°
Reaches altitude 10° 22:27:35 10° 250° (WSW) 1,503 -1.1 -17.5°
Maximum altitude 22:30:54 59° 170° (S) 492 -3.8 -17.6°
Drops below altitude 10° 22:34:15 10° 91° (E) 1,509 -1.0 -17.6°
Sets 22:36:22 0° 87° (E) 2,375 0.1 -17.6°
